Shi Jian 6/2B

operational
NORAD ID: 29505 Int'l Des: 2006-046 Owner: CASC Country: CN
LEOCIRCULARRETROGRADESSO

About Shi Jian 6/2B

Description loading...

Live Position

Loading 3D Globe...

Upcoming Passes

Altitude History

Altitude vs Time

uPlot chart will show altitude changes over time

Two-Line Element Set

1 29505U 06046A 26061.18504397 .00008473 00000-0 44993-3 0 9993
2 29505 97.6516 101.4736 0004230 132.8310 227.3278 15.15567428 56057
Epoch: Mar 2, 2026 • Age: 29 hours

Current Status

Altitude 549.1 km
Velocity 7.59 km/s
Sub-Earth Point -78.99°S, 2.26°W
Launch Date Oct 23, 2006
Age 19.3 years
Type other

Technical Details

Classification Payload
Mass 1000.00 kg
Dry Mass 1000.00 kg
Total Mass 1000.00 kg
Length 1.40 m
Diameter 1.40 m
Span 8.60 m
Shape Box + 2 Pan
Manufacturer SAST
Bus Type FY-1
Phase Status In Orbit
Owner/State CASC/CN

Large Constellations

Loading constellations...